www.pogodaiklimat.ru
ПОГОДА в Чандлере
Время
и дата
13:47 04.02
14:47 04.02
15:47 04.02
16:47 04.02
17:47 04.02
18:47 04.02
20:47 04.02
05:52 05.02
06:47 05.02
08:47 05.02
09:47 05.02
10:47 05.02
12:50 05.02
13:47 05.02
16:47 05.02
17:47 05.02
18:47 05.02
19:47 05.02
20:47 05.02
05:47 06.02
06:47 06.02
07:47 06.02
08:48 06.02
09:47 06.02
10:47 06.02
11:47 06.02
12:47 06.02
13:49 06.02
14:47 06.02
15:47 06.02
16:47 06.02
17:47 06.02
18:47 06.02
19:47 06.02
20:53 06.02
05:47 07.02
06:47 07.02
07:47 07.02
08:47 07.02
09:47 07.02
10:47 07.02
11:47 07.02
12:47 07.02
13:47 07.02
14:47 07.02
15:47 07.02
16:47 07.02
17:47 07.02
Ветер
(напр.,м/с)
Видим. Явления Облачность Т
(С)
Тd
(С)
f
(%)
Тe
(С)
Тes
(С)
Комфортность P
(гПа)
Po
(гПа)
Тmin
(С)
Tmax
(С)
R
(мм)
R24
(мм)
S
(см)
штиль 0 16 км ясно +22.0 -1.0 21 +21 +33 комфорт 974.8
штиль 0 16 км ясно +23.0 -2.0 19 +22 +32 комфорт 974.5
штиль 0 16 км ясно +24.0 -1.0 19 +23 +29 комфорт 974.2
штиль 0 16 км ясно +23.0 -2.0 19 +22 +25 комфорт 974.2
ЮЗ 3 16 км ясно +21.0 0.0 25 +21 +22 комфорт 974.2
ЮЗ 4 16 км ясно +19.0 0.0 28 +19 +19 974.5
штиль 0 16 км ясно +14.0 +2.0 44 +14 +14 974.8
штиль 0 16 км ясно +6.0 +2.0 75 +5 +5 974.8
штиль 0 16 км ясно +6.0 +2.0 75 +5 +5 975.5
штиль 0 16 км ясно +10.0 +3.0 62 +10 +10 975.5
штиль 0 16 км ясно +13.0 +3.0 51 +13 +16 975.5
ЮЗ 3 16 км ясно +16.0 0.0 34 +16 +20 975.5
нст 2 16 км ясно +20.0 +1.0 28 +21 +30 комфорт 973.9
нст 2 16 км ясно +21.0 +1.0 26 +22 +31 комфорт 972.6
ЮЗ 7 16 км ясно +22.0 0.0 23 +21 +22 комфорт 971.3
ЮЗ 6
{9}
16 км ясно +21.0 -1.0 23 +21 +21 комфорт 971.0
ЮЗ 4 16 км ясно +19.0 0.0 28 +19 +19 971.3
ЮЗ 4 16 км ясно +18.0 0.0 30 +18 +18 971.3
ЮЗ 3 16 км ясно +17.0 +1.0 34 +17 +17 971.3
Ю 3 16 км ясно +8.0 +2.0 66 +6 +6 970.0
Ю 5 16 км ясно +8.0 +2.0 66 +5 +5 970.6
Ю 3 16 км ясно +8.0 +2.0 66 +6 +6 971.3
Ю 3 16 км ясно +10.0 +2.0 58 +8 +9 971.6
ЮЗ 2 16 км ясно +14.0 0.0 38 +14 +17 971.9
нст 2 16 км ясно +15.0 +1.0 39 +15 +21 972.2
З 5 16 км ясно +16.0 +3.0 42 +15 +19 971.6
ЮЗ 6 16 км ясно +17.0 -4.0 23 +16 +20 971.0
З 5
{8}
16 км ясно +17.0 -4.0 23 +16 +21 970.3
З 5
{9}
16 км ясно +18.0 -3.0 24 +18 +22 970.3
З 5 16 км 2/0 3000 m
[Ac]
+19.0 -5.0 19 +19 +21 970.0
З 3 16 км 5/0 3300 m
[Ac]
+19.0 -5.0 19 +19 +20 970.0
В 4
{7}
16 км 2/0 3600 m
[Ac]
+17.0 -2.0 27 +17 +17 970.6
В 2 16 км 2/0 3600 m
[Ac]
+15.0 -2.0 31 +15 +15 971.3
В 5 16 км 2/0 3600 m
[Ac]
+14.0 -1.0 36 +13 +13 971.9
штиль 0 16 км 2/0 3600 m
[Ac]
+13.0 -1.0 38 +13 +13 972.2
СЗ 3 16 км ясно +7.0 -5.0 42 +5 +5 976.1
СЗ 2 16 км ясно +7.0 -5.0 42 +6 +6 976.8
штиль 0 16 км ясно +5.0 -4.0 52 +5 +5 977.8
штиль 0 16 км ясно +10.0 -3.0 40 +10 +11 978.4
штиль 0 16 км ясно +13.0 -5.0 28 +13 +17 978.4
С 4 16 км ясно +14.0 -5.0 26 +13 +17 978.4
нст 2 16 км ясно +16.0 -7.0 20 +16 +24 978.4
нст 2 16 км ясно +17.0 -7.0 19 +17 +27 977.8
СЗ 3
{6}
16 км ясно +17.0 -7.0 19 +17 +25 976.8
СЗ 3 16 км ясно +17.0 -7.0 19 +17 +24 976.1
СЗ 2 16 км ясно +19.0 -8.0 15 +19 +25 975.8
З 4 16 км ясно +19.0 -8.0 15 +19 +20 975.8
З 4 16 км ясно +18.0 -7.0 18 +18 +18 975.8
Местоположение метеостанции Chandler Municipal Airport: широта 33.2692 долгота -111.8111 высота над уровнем моря 379 м.
В архиве по умолчанию представлена погода в Чандлере за последние 1-2 суток. Обновление информации о фактической погоде в базе происходит ежечасно! Архивные данные за месяц целиком и за предыдущие месяцы Вы можете получить, выбрав интересующий диапазон дат из раскрывающегося списка и нажав кнопку "Ввод!".
Внимание! Архив погоды МЕТАР в базе сайта по станциям, не включенным в климатический монитор, хранится не более 60 дней. Нет смысла пытаться выбрать более раннюю дату.
*Определитесь, кто Вы:
Внимание! Время в таблицах - местное (без учета летнего времени). Для получения всемирного времени необходимо вычесть поправку, которая равна -7 ч.
Смотрите также архив погоды в соседних городах и на ближайших метеорологических станциях:
Партнеры нашего сайта:      
Пояснения к столбцам:
  • Ветер - указаны скорость ветра в м/с - средняя за 10 мин, порывы в срок и между сроками (в фигурных скобках) и направление, откуда дует ветер: С - северный,
  • СВ - северо-восточный, В - восточный, ЮВ - юго-восточный, Ю - южный, ЮЗ - юго-западный, З - западный, СЗ - северо-западный.
  • Видимость - горизонтальная дальность видимости в метрах или километрах. При видимости от 1 до 10 км при отсутствии осадков обычно наблюдается дымка, при ухудшении видимости до 1 км и менее - туман. В сухую погоду видимость может ухудшаться дымом, пылью или мглою.
  • Явления - указаны атмосферные явления, наблюдавшиеся в срок или в последний час перед сроком; фигурными скобками обозначены явления, наблюдавшиеся между сроками (за 1-3 часа до срока); квадратными скобками обозначены град или гололедные отложения с указанием их диаметра в мм.
  • Облачность - указаны через наклонную черту общая и нижняя облачность в баллах и высота нижней границы облаков в метрах; квадратными скобками обозначены формы облаков: Ci - перистые, Cs - перисто-слоистые, Cc - перисто-кучевые, Ac - высококучевые, As - высокослоистые, Sc - слоисто-кучевые, Ns - слоисто-дождевые, Cu - кучевые, Cb - кучево-дождевые. Подробнее классификацию облаков см. в Атласе облаков (PDF).
  • T - Температура воздуха - температура, измеренная на высоте 2 м над землей.
  • Td - Температура точки росы - температура, при понижении до которой содержащийся в воздухе водяной пар достигнет насыщения.
  • f - Относительная влажность воздуха - влажноcть воздуха, измеренная на высоте 2 м над землей.
  • Te - Эффективная температура - температура, которую ощущает одетый по сезону человек в тени. Характеристика душности погоды. При расчете учитывается влияние влажности воздуха и скорости ветра на теплоощущения человека.
  • Tes - Эффективная температура на солнце - температура, которую ощущает человек, с поправкой на солнечный нагрев. Характеристика знойности погоды. Зависит от высоты солнца над горизонтом, облачности и скорости ветра. Ночью, в пасмурную погоду, а также при ветре 12 м/с и более поправка равна нулю.
  • P - Атмосферное давление - приведенное к уровню моря атмосферное давление.
  • Po - Атмосферное давление - измеренное на уровне метеостанции атмосферное давление.
  • Tmin - Минимальная температура - минимум температуры воздуха на высоте 2 м над землей.
  • Tmax - Максимальная температура - максимум температуры воздуха на высоте 2 м над землей.
  • R - Количество осадков - Количество выпавших осадков за период времени, мм. При наведении курсора мыши на число - период времени, за который выпало указанное количество осадков.
  • R24 - Количество осадков - Количество выпавших осадков за 24 часа, мм.
  • S - Снежный покров - Высота снежного покрова, см. При наведении курсора мыши на число - состояние снежного покрова и степень покрытия местности в баллах.